San Diego, CA

3:23 PM PST on February 08, 2016 (GMT -0800)
North Island Naval Air Station

Weather History for KNZY - December, 2012

Change the Weather History Date:

Thursday, December 13, 2012

  Actual Average Record
Temperature  
Mean Temperature 60 °F -  
Max Temperature 62 °F 63 °F 80 °F (2010)
Min Temperature 57 °F 47 °F 43 °F (1999)
Degree Days  
Heating Degree Days 6    
Growing Degree Days 10 (Base 50)    
Moisture  
Dew Point 50 °F    
Average Humidity 73    
Maximum Humidity 88    
Minimum Humidity 49    
Precipitation  
Precipitation 1.25 in - - ()
Sea Level Pressure  
Sea Level Pressure 29.80 in    
Wind  
Wind Speed 11 mph (WSW)    
Max Wind Speed 22 mph    
Max Gust Speed 30 mph    
Visibility 7 miles    
Events Rain    
Averages and records for this station are not official NWS values.
T = Trace of Precipitation, MM = Missing Value Source: NWS Daily Summary

Daily Weather History Graph

Daily Weather History Graph

Search for Another Location

Airport or City:

Trip Planner

Search our weather history database for the weather conditions in past years. The results will help you decide how hot, cold, wet, or windy it might be!

Date:

Astronomy

Dec. 13, 2012 Rise Set
Actual Time 6:42 AM PST 4:44 PM PST
Civil Twilight 6:15 AM PST 5:11 PM PST
Nautical Twilight 5:44 AM PST 5:42 PM PST
Astronomical Twilight 5:14 AM PST 6:12 PM PST
Moon 6:56 AM PST (12/13) 5:30 PM PST (12/13)
Length of Visible Light 10h 55m
Length of Day
10h 01m
New Moon, 0% of the Moon is Illuminated
Dec 13
New Moon
Dec 19
First Quarter
Dec 28
Full
Jan 4
Last Quarter
Jan 11
New

Hourly Weather History & Observations

Time (PST) Temp. Dew Point Humidity Pressure Visibility Wind Dir Wind Speed Gust Speed Precip Events Conditions
12:42 AM 62.6 °F 53.6 °F 72% 29.85 in 9.0 mi SSE 12.7 mph - 0.01 in   Light Drizzle
12:52 AM 62.1 °F 53.1 °F 72% 29.85 in 9.0 mi SSE 15.0 mph 25.3 mph 0.01 in   Mostly Cloudy
1:52 AM 61.0 °F 53.1 °F 75% 29.83 in 8.0 mi SSE 12.7 mph - N/A   Mostly Cloudy
2:52 AM 61.0 °F 52.0 °F 72% 29.82 in 8.0 mi SSE 12.7 mph - 0.00 in Rain Light Rain
3:15 AM 62.6 °F 53.6 °F 72% 29.81 in 8.0 mi SSE 17.3 mph 24.2 mph 0.00 in   Mostly Cloudy
3:52 AM 62.1 °F 52.0 °F 70% 29.79 in 9.0 mi SSE 17.3 mph - 0.00 in   Mostly Cloudy
3:57 AM 60.8 °F 51.8 °F 72% 29.79 in 7.0 mi SSE 21.9 mph 29.9 mph 0.02 in Rain Rain
4:47 AM 60.8 °F 53.6 °F 77% 29.80 in 7.0 mi SW 10.4 mph - 0.12 in Rain Light Rain
4:52 AM 60.1 °F 54.0 °F 80% 29.80 in 5.0 mi South 12.7 mph 20.7 mph 0.13 in Rain Rain
5:10 AM 59.0 °F 53.6 °F 82% 29.79 in 2.0 mi WSW 13.8 mph 25.3 mph 0.18 in Rain Heavy Rain
5:16 AM 59.0 °F 53.6 °F 82% 29.80 in 3.0 mi WSW 6.9 mph - 0.24 in Rain Heavy Rain
5:52 AM 57.9 °F 54.0 °F 87% 29.81 in 1.0 mi Variable 5.8 mph - 0.61 in Rain Heavy Rain
6:07 AM 57.2 °F 53.6 °F 88% 29.81 in 3.0 mi Calm Calm - 0.04 in Rain Light Rain
6:52 AM 57.9 °F 53.1 °F 84% 29.81 in 3.0 mi WSW 5.8 mph - 0.29 in Rain Light Rain
7:52 AM 57.0 °F 52.0 °F 83% 29.81 in 6.0 mi NNW 4.6 mph - N/A Rain Light Rain
8:25 AM 57.2 °F 53.6 °F 88% 29.81 in 6.0 mi Calm Calm - 0.01 in Rain Light Rain
8:52 AM 57.0 °F 53.1 °F 87% 29.83 in 5.0 mi East 4.6 mph - 0.03 in Rain Light Rain
9:42 AM 57.2 °F 53.6 °F 88% 29.84 in 5.0 mi ESE 3.5 mph - 0.06 in Rain Light Rain
9:52 AM 57.0 °F 53.1 °F 87% 29.83 in 5.0 mi East 3.5 mph - 0.06 in Rain Light Rain
10:52 AM 57.9 °F 53.1 °F 84% 29.83 in 7.0 mi SE 4.6 mph - 0.01 in Rain Light Rain
11:45 AM 57.2 °F 51.8 °F 82% 29.81 in 2.0 mi WNW 8.1 mph - 0.09 in Rain Rain
11:52 AM 57.0 °F 51.1 °F 81% 29.81 in 5.0 mi WNW 4.6 mph - 0.10 in Rain Light Rain
12:12 PM 57.2 °F 53.6 °F 88% 29.79 in 7.0 mi Calm Calm - 0.01 in   Mostly Cloudy
12:52 PM 60.1 °F 52.0 °F 75% 29.78 in 9.0 mi Calm Calm - 0.01 in   Mostly Cloudy
1:52 PM 61.0 °F 48.9 °F 64% 29.75 in 9.0 mi WNW 12.7 mph - N/A   Mostly Cloudy
2:52 PM 60.1 °F 46.9 °F 62% 29.76 in 9.0 mi WNW 12.7 mph - N/A   Mostly Cloudy
3:52 PM 60.1 °F 46.0 °F 60% 29.75 in 9.0 mi NW 13.8 mph - N/A   Mostly Cloudy
4:52 PM 59.0 °F 44.1 °F 58% 29.77 in 10.0 mi WNW 10.4 mph - N/A   Mostly Cloudy
5:52 PM 57.9 °F 44.1 °F 60% 29.77 in 10.0 mi WNW 9.2 mph - N/A   Mostly Cloudy
6:52 PM 57.9 °F 43.0 °F 58% 29.77 in 10.0 mi WNW 10.4 mph - N/A   Mostly Cloudy
7:52 PM 57.9 °F 42.1 °F 56% 29.78 in 10.0 mi WNW 11.5 mph - N/A   Mostly Cloudy
8:52 PM 59.0 °F 41.0 °F 51% 29.78 in 10.0 mi WNW 12.7 mph - N/A   Mostly Cloudy
9:52 PM 59.0 °F 42.1 °F 53% 29.78 in 10.0 mi WNW 11.5 mph - N/A   Mostly Cloudy
10:52 PM 57.9 °F 39.0 °F 49% 29.78 in 9.0 mi West 13.8 mph - N/A   Mostly Cloudy
11:52 PM 57.9 °F 39.9 °F 51% 29.79 in 10.0 mi WNW 15.0 mph - N/A   Mostly Cloudy